[[{"header":{"parameterUnit":"m.s-1","parameterCategory":1,"la1":30.2991,"la2":30.254,"lo1":-89.0895,"lo2":-89.0444,"dy":0.0017,"dx":0.0017,"nx":28,"ny":28,"refTime":"2024-02-08T03:00:00:Z","depth":0,"parameterNumber":2,"parameterNumberName":"U-component_of_WINDS"},"data":[0,0,0,0,0,0,0,0,0,0,0,0,0,0,0,0,0,0,0,0,0,0,0,0,0,0,0,0,0,0,0,0,0,0,0,0,0,0,0,0,0,0,0,0,0,0,0,0,0,0,0,0,0,0,0,0,0,0,-5.4174,-5.4174,0,-5.4206,-5.4207,-5.4207,-5.4083,-5.4079,-5.4076,-5.4072,-5.4109,-5.4113,-5.4117,0,0,0,0,0,0,0,0,0,0,0,0,0,-5.4008,-5.4012,-5.4174,-5.4174,-5.4175,-5.4206,-5.4207,-5.4207,-5.4084,-5.4079,-5.4075,-5.407,-5.4107,-5.4112,-5.4118,0,0,0,0,0,0,0,0,0,0,0,0,0,-5.4064,-5.4013,-5.4174,-5.4117,-5.4112,-5.4206,-5.4207,-5.4207,-5.4085,-5.4079,-5.4073,-5.4068,-5.4105,-5.4112,-5.4118,-5.427,0,0,-5.4139,-5.4141,0,0,0,0,0,0,0,0,-5.4061,-5.4071,-5.4125,-5.4121,-5.4116,-5.4135,-5.4161,-5.4229,-5.4086,-5.4095,-5.4072,-5.4066,-5.4122,-5.4127,-5.4145,-5.4272,-5.4273,-5.4139,-5.4143,-5.4146,-5.4148,0,0,0,0,0,0,0,-5.4058,-5.4069,-5.4187,-5.4126,-5.412,-5.4091,-5.4093,-5.4174,-5.4139,-5.4094,-5.4085,-5.409,-5.4118,-5.4139,-5.4145,-5.4274,-5.4139,-5.4145,-5.4149,-5.4151,-5.4526,-5.4532,0,0,0,0,0,0,-5.4061,-5.4066,-5.4186,-5.4188,-5.4074,-5.4098,-5.41,-5.4134,-5.4138,-5.4133,-5.4095,-5.4084,-5.4131,-5.4138,-5.4146,-5.4323,-5.4146,-5.4152,-5.4156,-5.4521,-5.4528,-5.4534,0,0,0,0,0,0,-5.4058,-5.4073,-5.4184,-5.4125,-5.4137,-5.4107,-5.4146,-5.4138,-5.4158,-5.4139,-5.4132,-5.4122,-5.4126,-5.4137,-5.424,-5.4323,-5.4155,-5.4161,-5.4513,-5.4523,-5.4531,-5.4679,0,0,0,0,0,0,-5.4054,-5.4072,-5.4129,-5.4127,-5.414,-5.4277,-5.4151,-5.4143,-5.417,-5.4156,-5.4163,-5.4159,-5.4123,-5.4231,-5.4247,-5.4329,-5.4166,-5.4506,-5.4518,-5.4528,-5.4667,-5.4692,-5.4714,0,0,0,0,0,-5.4048,-5.417,-5.4132,-5.4147,-5.421,-5.4282,-5.429,-5.4246,-5.4177,-5.4234,-5.4222,-5.4158,-5.4312,-5.4242,-5.4259,-5.4345,-5.45,-5.4514,-5.4527,-5.4656,-5.4687,-5.4713,0,0,0,0,0,0,-5.4183,-5.4169,-5.4127,-5.4251,-5.4269,-5.4261,-5.4331,-5.428,-5.4318,-5.4304,-5.4248,-5.4251,-5.4364,-5.4365,-5.4288,-5.4492,-5.4394,-5.4412,-5.4487,-5.4516,-5.4539,-5.4536,-5.4172,0,0,0,0,0,-5.4228,-5.4286,-5.4271,-5.4383,-5.4393,-5.4362,-5.4391,-5.4356,-5.4372,-5.4379,-5.4374,-5.4393,-5.4445,-5.4481,-5.4528,-5.4667,-5.4667,-5.4734,-5.4758,-5.4777,-5.4793,-5.4866,-5.4896,-5.4579,-5.4578,-5.4578,0,0,-5.432,-5.4319,-5.436,-5.441,-5.4419,-5.4482,-5.4368,-5.444,-5.4486,-5.439,-5.4486,-5.4484,-5.4502,-5.4624,-5.4677,-5.4628,-5.4881,-5.4795,-5.481,-5.4815,-5.4883,-5.4913,-5.494,-5.4588,-5.4586,-5.4585,0,0,-5.4519,-5.4525,-5.4618,-5.463,-5.4645,-5.4623,-5.4646,-5.4646,-5.4641,-5.4737,-5.4666,-5.4721,-5.4812,-5.4828,-5.4848,-5.5055,-5.4998,-5.5072,-5.5194,-5.5267,-5.5292,-5.5313,-5.5386,-5.5413,-5.5088,-5.5088,-5.5088,0,-5.4631,-5.4722,-5.4673,-5.4749,-5.4773,-5.4689,-5.4783,-5.4797,-5.4828,-5.4847,-5.4792,-5.4904,-5.4911,-5.5035,-5.5085,-5.5105,-5.5129,-5.507,-5.5292,-5.5313,-5.5333,-5.5402,-5.543,-5.5097,-5.5096,-5.5095,-5.5094,0,-5.4859,-5.4924,-5.4998,-5.5028,-5.5061,-5.5147,-5.5111,-5.515,-5.5113,-5.5097,-5.5196,-5.5201,-5.5247,-5.5275,-5.5239,-5.5394,-5.5363,-5.5301,-5.5201,-5.5373,-5.5436,-5.5463,-5.5109,-5.5106,-5.5104,-5.5101,0,0,-5.5143,-5.5146,-5.5173,-5.5186,-5.5198,-5.5247,-5.533,-5.5374,-5.5409,-5.5434,-5.5501,-5.5581,-5.5523,-5.5546,-5.5512,-5.5576,-5.5738,-5.5505,-5.5505,-5.5547,-5.5909,-5.5954,-5.5986,-5.5702,-5.5707,-5.571,-5.5907,0,-5.5337,-5.5475,-5.5434,-5.5574,-5.5633,-5.5554,-5.5626,-5.5642,-5.563,-5.5679,-5.5667,-5.5724,-5.5644,-5.5657,-5.5717,-5.5706,-5.581,-5.5692,-5.5764,-5.5767,-5.576,-5.6019,-5.6067,-5.6252,-5.5932,-5.5936,-5.5939,0,-5.5582,-5.5615,-5.5761,-5.5763,-5.5786,-5.5851,-5.5888,-5.5936,-5.5953,-5.594,-5.5967,-5.5919,-5.6001,-5.5903,-5.6015,-5.5935,-5.5962,-5.5962,-5.5968,-5.5971,-5.5862,-5.6028,-5.631,-5.6337,-5.5978,-5.5975,-5.5972,0,-5.5772,-5.5854,-5.5951,-5.5965,-5.597,-5.6017,-5.6022,-5.6033,-5.6063,-5.6097,-5.6115,-5.6159,-5.6183,-5.6218,-5.6184,-5.6116,-5.6301,-5.62,-5.6293,-5.6294,-5.6333,-5.6331,-5.6622,-5.6355,-5.6354,-5.6354,-5.6353,0,-5.5992,-5.6084,-5.6036,-5.6096,-5.6197,-5.615,-5.6251,-5.6247,-5.6258,-5.6316,-5.6253,-5.6309,-5.6262,-5.6315,-5.6289,-5.6385,-5.6397,-5.6389,-5.6381,-5.6394,-5.6394,-5.6409,-5.6395,-5.6361,-5.636,-5.6358,-5.6357,0,-5.622,-5.6192,-5.6293,-5.629,-5.6292,-5.6366,-5.6364,-5.642,-5.6404,-5.6479,-5.6494,-5.647,-5.6528,-5.6499,-5.656,-5.6543,-5.6667,-5.6642,-5.6661,-5.6653,-5.6747,-5.6738,-5.7056,-5.7095,-5.6805,-5.6807,-5.681,0,-5.6361,-5.643,-5.6435,-5.6468,-5.6477,-5.6533,-5.6563,-5.652,-5.6554,-5.6579,-5.6632,-5.6685,-5.6725,-5.6823,-5.6811,-5.6858,-5.6833,-5.6941,-5.6839,-5.685,-5.6833,-5.6828,-5.6834,-5.6961,-5.6965,-5.6967,-5.697,0,-5.6614,-5.6597,-5.6642,-5.6683,-5.6721,-5.6751,-5.6776,-5.6808,-5.6766,-5.6808,-5.6866,-5.6897,-5.696,-5.7013,-5.7054,-5.706,-5.7008,-5.7002,-5.7026,-5.7038,-5.7045,-5.7041,-5.6714,-5.6994,-5.6992,-5.699,-5.6989,-5.6988,-5.6802,-5.6859,-5.6871,-5.6924,-5.6938,-5.6963,-5.7015,-5.7007,-5.7054,-5.7101,-5.7074,-5.7143,-5.7159,-5.7208,-5.7221,-5.7275,-5.7232,-5.7266,-5.7275,-5.7283,-5.7295,-5.7039,-5.7283,-5.7282,-5.7281,-5.7281,-5.728,0,-5.705,-5.7054,-5.7103,-5.714,-5.7182,-5.713,-5.7155,-5.7194,-5.7255,-5.7274,-5.7315,-5.7383,-5.7435,-5.7428,-5.7476,-5.7521,-5.7498,-5.7534,-5.7529,-5.7532,-5.7332,-5.7306,-5.7552,-5.7552,-5.7552,-5.7551,-5.7551,-5.7551,-5.7183,-5.7277,-5.7262,-5.7363,-5.7367,-5.7433,-5.7452,-5.7476,-5.7491,-5.7569,-5.7612,-5.7607,-5.7616,-5.7664,-5.771,-5.7707,-5.7727,-5.7772,-5.776,-5.7573,-5.7546,-5.752,-5.7495,-5.7777,-5.7777,-5.7955,-5.7957,-5.7958]},{"header":{"parameterUnit":"m.s-1","parameterCategory":1,"la1":30.2991,"la2":30.254,"lo1":-89.0895,"lo2":-89.0444,"dy":0.0017,"dx":0.0017,"nx":28,"ny":28,"refTime":"2024-02-08T03:00:00:Z","depth":0,"parameterNumber":3,"parameterNumberName":"V-component_of_WINDS"},"data":[0,0,0,0,0,0,0,0,0,0,0,0,0,0,0,0,0,0,0,0,0,0,0,0,0,0,0,0,0,0,0,0,0,0,0,0,0,0,0,0,0,0,0,0,0,0,0,0,0,0,0,0,0,0,0,0,0,0,3.3533,3.3533,0,3.35,3.35,3.35,3.3416,3.3414,3.3412,3.3411,3.3377,3.3378,3.3379,0,0,0,0,0,0,0,0,0,0,0,0,0,3.3526,3.3526,3.3533,3.3533,3.3533,3.35,3.35,3.3499,3.3416,3.3414,3.3412,3.341,3.3377,3.3378,3.3379,0,0,0,0,0,0,0,0,0,0,0,0,0,3.3515,3.3527,3.3533,3.3487,3.3483,3.3501,3.35,3.3499,3.3417,3.3414,3.3411,3.3409,3.3377,3.3378,3.3379,3.3439,0,0,3.3382,3.3383,0,0,0,0,0,0,0,0,3.3515,3.3515,3.3494,3.349,3.3485,3.3459,3.3485,3.3479,3.3417,3.3442,3.3411,3.3408,3.3407,3.3405,3.3405,3.3438,3.3436,3.3383,3.3383,3.3384,3.3384,0,0,0,0,0,0,0,3.3516,3.3516,3.352,3.3494,3.3489,3.3468,3.3464,3.3483,3.344,3.3439,3.3433,3.343,3.3404,3.3404,3.3404,3.3436,3.3383,3.3384,3.3384,3.3385,3.3518,3.3521,0,0,0,0,0,0,3.3524,3.3517,3.3521,3.3519,3.3494,3.3471,3.3466,3.3471,3.3439,3.3432,3.3433,3.3427,3.3403,3.3402,3.3402,3.3471,3.3384,3.3385,3.3385,3.3515,3.3519,3.3522,0,0,0,0,0,0,3.3524,3.3525,3.3523,3.3517,3.3515,3.3474,3.348,3.3471,3.3471,3.3434,3.3426,3.3441,3.3401,3.34,3.3431,3.3469,3.3385,3.3386,3.3512,3.3516,3.352,3.361,0,0,0,0,0,0,3.3524,3.3525,3.3547,3.3518,3.3515,3.3552,3.3482,3.3473,3.3473,3.3465,3.344,3.3433,3.3399,3.343,3.3432,3.3469,3.3387,3.3508,3.3514,3.3519,3.3604,3.3617,3.3629,0,0,0,0,0,3.3524,3.3574,3.3549,3.355,3.3542,3.3554,3.3553,3.3513,3.3477,3.3499,3.3475,3.3434,3.3465,3.3434,3.3435,3.3473,3.3506,3.3512,3.3518,3.3598,3.3614,3.3628,0,0,0,0,0,0,3.3608,3.3569,3.3541,3.3582,3.3572,3.354,3.3566,3.3531,3.3531,3.3523,3.3474,3.3469,3.3507,3.3493,3.3459,3.3531,3.3478,3.3486,3.3538,3.3554,3.3566,3.3568,3.3388,0,0,0,0,0,3.3632,3.3645,3.361,3.365,3.3646,3.3608,3.3611,3.3582,3.3569,3.3565,3.3543,3.3533,3.354,3.3546,3.3551,3.3602,3.3595,3.3629,3.3641,3.3652,3.3658,3.3685,3.37,3.3543,3.3543,3.3543,0,0,3.368,3.366,3.3671,3.3666,3.3655,3.367,3.3604,3.3623,3.3634,3.3567,3.3595,3.3579,3.3565,3.3606,3.3623,3.3596,3.3701,3.366,3.3668,3.3669,3.3694,3.3709,3.3722,3.3547,3.3546,3.3546,0,0,3.3776,3.3762,3.3795,3.3785,3.3769,3.3744,3.3752,3.3725,3.3712,3.3739,3.369,3.3703,3.3717,3.3709,3.3706,3.3802,3.3764,3.3805,3.387,3.3897,3.391,3.392,3.3955,3.3968,3.3812,3.3813,3.3813,0,3.3838,3.3859,3.3816,3.3838,3.3838,3.3779,3.3812,3.3805,3.3792,3.3793,3.3763,3.378,3.3766,3.3805,3.3829,3.3829,3.3837,3.3808,3.3911,3.3922,3.3931,3.3964,3.3977,3.3818,3.3817,3.3817,3.3816,0,3.3937,3.3952,3.398,3.3969,3.3972,3.4,3.3962,3.397,3.3941,3.3919,3.3948,3.393,3.393,3.3938,3.3909,3.3974,3.3957,3.392,3.3866,3.3952,3.3982,3.3994,3.3825,3.3823,3.3822,3.382,0,0,3.4083,3.405,3.4061,3.4056,3.4035,3.4046,3.4072,3.4073,3.4082,3.4075,3.4096,3.411,3.4076,3.4073,3.4044,3.4068,3.4146,3.4027,3.4026,3.405,3.4217,3.4245,3.4261,3.4121,3.4123,3.4125,3.4219,0,3.4174,3.4215,3.4179,3.4227,3.4242,3.4187,3.421,3.42,3.4181,3.4191,3.4169,3.418,3.4134,3.4133,3.4154,3.4132,3.4179,3.4125,3.414,3.4141,3.4146,3.4276,3.4305,3.4395,3.423,3.4232,3.4233,0,3.4284,3.4284,3.4335,3.4312,3.4317,3.4338,3.4337,3.4347,3.4335,3.4319,3.4318,3.4282,3.4307,3.4255,3.4289,3.4253,3.4257,3.4248,3.425,3.425,3.4192,3.428,3.4422,3.4436,3.4251,3.425,3.4249,0,3.4387,3.4399,3.4431,3.4428,3.4403,3.4419,3.441,3.4395,3.4399,3.4398,3.4401,3.4403,3.4404,3.4407,3.4373,3.4339,3.4412,3.4357,3.44,3.4401,3.4417,3.4417,3.4563,3.4421,3.4421,3.442,3.442,0,3.4492,3.4525,3.4477,3.4497,3.4533,3.4491,3.4528,3.4513,3.4501,3.4518,3.4471,3.4488,3.4442,3.4454,3.4428,3.446,3.4461,3.445,3.4442,3.4454,3.4456,3.4456,3.4449,3.4424,3.4423,3.4422,3.4422,0,3.4612,3.4581,3.4612,3.4587,3.4581,3.4609,3.4587,3.4605,3.4583,3.4605,3.4608,3.4574,3.4586,3.4553,3.4559,3.4542,3.4589,3.4572,3.4593,3.4588,3.4634,3.463,3.4785,3.4803,3.465,3.4651,3.4652,0,3.4681,3.4705,3.4683,3.4691,3.4684,3.4697,3.4701,3.4661,3.4667,3.4658,3.4677,3.4685,3.4689,3.4712,3.4688,3.4693,3.4676,3.473,3.4676,3.4687,3.4677,3.4676,3.4679,3.4741,3.4742,3.4744,3.4745,0,3.4807,3.4791,3.4798,3.4801,3.4807,3.4807,3.4804,3.4814,3.4771,3.4781,3.4793,3.4797,3.4804,3.4814,3.4814,3.4804,3.4769,3.4763,3.4773,3.4785,3.4797,3.4791,3.4624,3.4759,3.4758,3.4757,3.4756,3.4755,3.4903,3.4923,3.4911,3.4921,3.4915,3.4914,3.493,3.4911,3.4921,3.4924,3.49,3.4918,3.4907,3.4905,3.4899,3.4913,3.4888,3.4903,3.4907,3.4911,3.4919,3.4795,3.4913,3.4912,3.4912,3.4911,3.4911,0,3.5027,3.5017,3.5027,3.5025,3.5034,3.5,3.4995,3.5005,3.5021,3.5014,3.502,3.5035,3.5045,3.5023,3.5029,3.5044,3.5028,3.5047,3.5045,3.5044,3.494,3.4931,3.506,3.506,3.506,3.506,3.506,3.506,3.5092,3.5125,3.5108,3.5137,3.5127,3.5144,3.5145,3.5144,3.5138,3.5157,3.5165,3.5151,3.5139,3.5144,3.5151,3.5145,3.5149,3.5174,3.5162,3.5066,3.5051,3.5037,3.5028,3.5176,3.5176,3.5265,3.5266,3.5266]}]]